ATLAS 5 CENTAUR DEB, 43984

Orbit data source: Space-Track

ATLAS 5 CENTAUR DEB, 43984 is space debris in HEO originally from a launch on Wed, 17 Sep 2014 UTC launched from the Air Force Eastern Test Range (AFETR). Debris objects in space refer to the collection of defunct objects orbiting the Earth. Examples of debris include non-operational satellites, rocket bodies, and fragments generated from explosions, collisions, or faulty payload assembly.

Loading next visibility...
Identifier
43984, 2014-055AP
Orbit
HEO
Last TLE update
1 week ago
Origin
Manufacturer
Unknown
Mission
Spacecraft
Bus & Motor
Unknown
Mass
Unknown
Launch date (UTC)
2014-09-17 (11 years ago)
Launch vehicle
Unknown
Launch site
Air Force Eastern Test Range (AFETR)
Object type
Payload
Rocket body
Debris
Shape & HBR
Unknown
Radar Cross Section
Small (<0.1 m²)

Expand to show TLE details & history

TLE from 1 week ago
0 ATLAS 5 CENTAUR DEB
1 43984U 14055AP  25122.13173971 -.00000004  00000-0  00000+0 0  9991
2 43984  20.6443 137.0038 5137794 174.8254 193.8515  1.91687035 46527
Epoch: 2025-05-02T03:09Z
Definitive object data (Epoch: 2025-05-02T03:09:42.31Z)
Latitude
-0.00002°
Longitude
-130.6982°
Altitude
34,856.356 km
Speed
2.185 km/s
True Right ascension
09h 08m 05s
True Declination
0° 00' 00"
Sunlit
Object was in daylight at TLE epoch
Visualization TLE readout
Latitude
-13.44241°
Longitude
-170.86385°
Altitude
27,651.899 km
Speed
2.978 km/s
Apparent Right ascension
06h 03m 28s
Apparent Declination
-18° 12' 33"
Sunlit
Object is in daylight
Visualization observer readout
Local Sidereal Time
15:04:12
Azimuth
286.059° WNW
Elevation
-45.837°
Doppler factor
1
Orbital elements
Apogee altitude
35,063.391 km
Perigee altitude
6,932.735 km
Semi-major axis
27,376.2 km
Eccentricity
0.5137794
Inclination
20.6443°
RAAN
137.0038°
Arg. of periapsis
174.8254°
True anomaly
185.20087°
Mean anomaly
193.8515°
Eccentric anomaly
189.16352°
Mean motion
0.47916 °/min
BSTAR
Unknown
Orbital period
751.31 mins
Loading maneuver chart data...
Loading SW <> Apogee altitude chart data...
Loading historical data...
Loading historical data...
Loading historical data...
Loading historical data...
Loading historical data...
Loading historical data...
Loading historical data...

ATLAS 5 CENTAUR DEB Visibility forecast

Observer location: undefined°, undefined°

Span
Click to sort rows by Start time (UTC) header in descending order
Start Az.
Max El. time (UTC)
Max El. Az.
Max El.
End time (UTC)
End Az.
554 mins2025-05-09 18:45:17.881Z137.714° SSE2025-05-10 02:10:17.881Z133.874° SE37.145°2025-05-10 03:59:17.881Z90.748° ESE
|